Total_Precipitation_Accumulation
1.57 1.92 2.48 3.28 4.29 5.14 5.40 4.87 4.31 3.86 3.41 2.95 2.33 1.88 1.67 1.50 1.26 1.04 0.89 0.80 0.75 0.75 0.77 0.68 0.66 0.60 0.60 0.63 0.64 0.71 0.76 0.76 0.80 0.91 0.91 0.80 0.70 0.74 0.74 0.78 0.87 0.80 0.81
1.74 2.34 3.31 3.93 4.14 4.19 3.87 3.47 3.12 2.84 2.40 1.97 1.65 1.44 1.31 1.11 0.92 0.78 0.74 0.62 0.56 0.56 0.54 0.55 0.52 0.50 0.52 0.54 0.56 0.57 0.58 0.58 0.62 0.73 0.81 0.73 0.65 0.57 0.47 0.57 0.56 0.60 0.80
1.86 2.63 3.20 3.27 2.93 2.52 2.30 2.28 2.26 1.92 1.77 1.64 1.46 1.37 1.28 1.07 0.87 0.73 0.63 0.51 0.42 0.40 0.41 0.42 0.43 0.46 0.46 0.50 0.52 0.49 0.49 0.49 0.47 0.54 0.71 0.71 0.64 0.54 0.45 0.45 0.48 0.57 0.68
1.33 1.76 2.00 1.83 1.76 1.79 1.82 1.96 1.99 1.71 1.61 1.47 1.19 0.98 0.87 0.79 0.68 0.60 0.57 0.54 0.44 0.37 0.34 0.34 0.33 0.33 0.37 0.47 0.42 0.45 0.47 0.46 0.39 0.40 0.47 0.52 0.57 0.59 0.57 0.49 0.46 0.53 0.59
0.79 0.88 0.97 0.99 1.08 1.16 1.38 1.64 1.79 1.72 1.53 1.35 1.22 1.09 0.91 0.84 0.78 0.74 0.71 0.65 0.55 0.45 0.37 0.37 0.34 0.30 0.29 0.34 0.35 0.45 0.48 0.47 0.41 0.38 0.40 0.43 0.45 0.47 0.51 0.46 0.42 0.44 0.40
0.65 0.67 0.65 0.71 0.83 0.95 1.10 1.32 1.53 1.64 1.60 1.43 1.27 1.17 1.05 0.95 0.85 0.79 0.75 0.65 0.56 0.51 0.43 0.40 0.38 0.33 0.29 0.29 0.29 0.36 0.42 0.47 0.48 0.42 0.37 0.43 0.44 0.45 0.48 0.39 0.33 0.35 0.29
0.65 0.67 0.60 0.52 0.53 0.65 0.79 0.85 1.00 1.20 1.29 1.26 1.15 1.08 1.08 0.94 0.75 0.69 0.64 0.61 0.51 0.45 0.41 0.39 0.38 0.33 0.32 0.31 0.31 0.32 0.36 0.42 0.46 0.44 0.40 0.39 0.38 0.43 0.45 0.38 0.33 0.37 0.36
0.40 0.44 0.40 0.32 0.26 0.32 0.49 0.59 0.74 0.89 1.05 1.04 0.97 0.89 0.89 0.76 0.64 0.69 0.57 0.52 0.50 0.48 0.47 0.42 0.36 0.34 0.33 0.31 0.34 0.31 0.31 0.34 0.38 0.37 0.45 0.43 0.33 0.39 0.41 0.43 0.50 0.51 0.54
0.17 0.22 0.27 0.25 0.20 0.22 0.32 0.45 0.62 0.76 0.89 0.97 0.92 0.77 0.72 0.67 0.64 0.64 0.58 0.49 0.55 0.53 0.54 0.47 0.39 0.38 0.39 0.39 0.38 0.33 0.32 0.34 0.36 0.40 0.48 0.48 0.44 0.44 0.44 0.48 0.60 0.69 0.63
0.13 0.14 0.17 0.19 0.16 0.17 0.23 0.36 0.51 0.67 0.77 0.84 0.81 0.68 0.72 0.66 0.66 0.65 0.61 0.57 0.53 0.52 0.54 0.48 0.40 0.40 0.40 0.41 0.42 0.37 0.39 0.41 0.44 0.49 0.54 0.59 0.58 0.57 0.57 0.57 0.65 0.78 0.77
0.10 0.11 0.11 0.14 0.14 0.16 0.19 0.25 0.35 0.48 0.57 0.62 0.63 0.62 0.64 0.63 0.63 0.64 0.62 0.59 0.56 0.58 0.54 0.50 0.45 0.41 0.39 0.41 0.46 0.46 0.43 0.43 0.47 0.50 0.54 0.59 0.66 0.72 0.73 0.76 0.76 0.79 0.89
0.08 0.08 0.09 0.11 0.14 0.17 0.18 0.21 0.26 0.31 0.38 0.43 0.46 0.50 0.56 0.58 0.55 0.54 0.58 0.62 0.58 0.55 0.55 0.52 0.47 0.39 0.36 0.42 0.47 0.49 0.45 0.45 0.48 0.55 0.64 0.65 0.65 0.72 0.78 0.87 0.88 0.89 1.02
0.07 0.08 0.10 0.14 0.17 0.18 0.19 0.21 0.26 0.30 0.33 0.34 0.36 0.43 0.54 0.55 0.51 0.48 0.54 0.60 0.61 0.58 0.56 0.56 0.52 0.46 0.42 0.42 0.44 0.48 0.51 0.54 0.56 0.61 0.69 0.73 0.78 0.80 0.82 0.89 0.91 0.96 1.10
0.08 0.09 0.12 0.15 0.15 0.15 0.17 0.21 0.30 0.40 0.46 0.47 0.49 0.54 0.63 0.65 0.61 0.56 0.56 0.59 0.63 0.63 0.64 0.66 0.67 0.62 0.56 0.50 0.48 0.50 0.52 0.57 0.62 0.69 0.69 0.71 0.80 0.87 0.93 0.99 1.09 1.14 1.21
0.11 0.12 0.15 0.22 0.23 0.24 0.27 0.29 0.35 0.46 0.56 0.67 0.76 0.86 0.95 0.97 0.86 0.79 0.78 0.81 0.82 0.83 0.91 0.92 0.87 0.80 0.71 0.59 0.59 0.58 0.53 0.59 0.59 0.63 0.68 0.68 0.70 0.77 0.89 0.94 1.07 1.22 1.38
0.19 0.20 0.22 0.28 0.27 0.26 0.28 0.31 0.38 0.45 0.50 0.60 0.70 0.80 0.96 1.02 0.95 0.90 0.94 0.98 0.99 1.07 1.13 1.09 1.04 1.00 0.78 0.73 0.67 0.63 0.62 0.63 0.64 0.67 0.71 0.68 0.65 0.64 0.69 0.76 0.88 1.02 1.19
0.18 0.17 0.23 0.27 0.28 0.24 0.23 0.27 0.33 0.43 0.54 0.67 0.80 0.86 0.95 1.03 1.05 1.05 1.11 1.14 1.13 1.11 1.13 1.11 1.06 0.99 0.92 0.78 0.63 0.58 0.59 0.65 0.70 0.72 0.74 0.64 0.54 0.59 0.59 0.62 0.66 0.73 0.83
0.31 0.29 0.31 0.36 0.37 0.30 0.29 0.35 0.43 0.53 0.62 0.69 0.78 0.86 0.97 1.05 1.16 1.28 1.33 1.37 1.41 1.38 1.30 1.19 1.14 1.11 1.01 0.85 0.70 0.66 0.62 0.65 0.66 0.68 0.70 0.67 0.58 0.56 0.61 0.64 0.61 0.59 0.60
0.32 0.38 0.44 0.49 0.47 0.45 0.43 0.50 0.61 0.72 0.79 0.81 0.88 0.97 1.05 1.16 1.24 1.30 1.37 1.45 1.50 1.45 1.39 1.33 1.27 1.24 1.16 1.01 0.79 0.70 0.67 0.70 0.67 0.65 0.65 0.66 0.58 0.55 0.49 0.55 0.56 0.54 0.53
0.42 0.47 0.48 0.50 0.57 0.62 0.63 0.65 0.72 0.84 0.93 0.95 0.96 1.01 1.17 1.25 1.27 1.27 1.31 1.33 1.35 1.31 1.26 1.24 1.26 1.25 1.23 1.14 0.85 0.70 0.65 0.69 0.69 0.74 0.73 0.70 0.59 0.55 0.45 0.48 0.52 0.50 0.48
0.57 0.55 0.54 0.57 0.61 0.60 0.63 0.71 0.79 0.89 0.95 0.95 0.97 1.04 1.14 1.27 1.30 1.33 1.31 1.25 1.21 1.20 1.23 1.22 1.22 1.23 1.20 1.08 0.77 0.67 0.70 0.77 0.80 0.78 0.75 0.75 0.65 0.50 0.40 0.39 0.43 0.42 0.44
0.62 0.60 0.54 0.49 0.51 0.55 0.60 0.69 0.78 0.79 0.84 0.85 0.87 0.92 0.95 0.97 1.05 1.19 1.23 1.22 1.20 1.19 1.22 1.26 1.26 1.23 1.20 1.08 0.82 0.61 0.59 0.68 0.76 0.78 0.78 0.77 0.66 0.52 0.44 0.36 0.33 0.33 0.34
0.52 0.52 0.53 0.51 0.53 0.58 0.65 0.71 0.74 0.76 0.79 0.85 0.88 0.87 0.87 0.93 1.01 1.07 1.07 1.04 1.01 0.96 0.96 1.10 1.20 1.21 1.21 1.12 0.86 0.64 0.54 0.58 0.66 0.76 0.88 0.86 0.72 0.64 0.57 0.48 0.39 0.36 0.34
0.48 0.49 0.51 0.53 0.62 0.69 0.75 0.73 0.70 0.75 0.83 0.88 0.90 0.94 0.97 0.93 0.93 0.99 0.97 0.95 0.93 0.89 0.89 1.04 1.16 1.22 1.22 1.16 1.00 0.82 0.69 0.66 0.68 0.73 0.85 0.89 0.87 0.80 0.72 0.61 0.47 0.36 0.36
0.39 0.42 0.51 0.56 0.63 0.67 0.72 0.75 0.73 0.76 0.81 0.81 0.80 0.88 0.94 0.89 0.83 0.89 0.96 0.90 0.90 0.92 0.92 1.05 1.24 1.27 1.18 1.04 0.87 0.75 0.75 0.73 0.77 0.81 0.95 1.06 1.08 1.07 0.98 0.83 0.68 0.57 0.52
0.37 0.43 0.49 0.57 0.62 0.66 0.69 0.69 0.69 0.75 0.82 0.85 0.80 0.76 0.76 0.78 0.80 0.85 0.89 0.87 0.77 0.75 0.70 0.74 0.86 0.95 0.87 0.74 0.63 0.56 0.54 0.51 0.51 0.59 0.83 1.08 1.16 1.19 1.18 1.08 0.91 0.79 0.71